Theta_e
352 349 346 345 343 343 337 335 335 344 347 349 349 349 351 344 352 353 356 356 354 349 350 344 317 310 321 324 325 325 325 325 326 327 324 324 323 322 323 321 321 319 318
351 351 349 347 347 346 344 340 335 334 342 349 347 340 332 338 348 351 352 359 355 351 349 346 320 312 315 317 317 322 326 327 327 323 322 322 321 322 322 321 320 319 318
350 351 350 347 348 348 347 345 343 341 334 338 337 335 334 334 340 347 350 360 355 350 348 348 328 312 313 320 316 317 325 326 324 323 322 322 321 321 321 320 318 317 317
350 350 352 350 349 351 350 348 348 347 346 345 342 339 338 340 342 344 350 358 357 351 349 348 328 311 312 318 313 315 322 325 324 323 322 321 321 322 321 319 318 316 317
350 351 351 352 351 353 354 352 349 349 349 349 349 347 343 342 342 343 352 357 357 354 350 347 334 311 311 312 314 316 318 325 324 321 320 320 319 319 320 319 318 316 316
351 351 352 353 355 353 350 352 354 352 350 351 351 350 348 346 342 350 352 353 356 356 351 348 332 311 310 312 315 318 318 320 319 320 319 318 319 318 320 319 318 317 316
362 357 356 357 358 358 358 359 359 358 357 356 354 353 351 351 345 350 351 354 357 356 351 348 330 316 311 313 319 322 320 320 320 318 318 318 318 318 318 319 317 317 315
360 361 362 362 361 362 361 361 361 360 359 359 359 357 354 352 348 345 350 356 356 355 351 348 336 328 319 313 320 324 323 321 321 320 318 317 318 318 318 317 317 317 315
360 361 362 359 361 361 360 360 361 361 361 361 360 359 358 352 351 348 350 355 357 357 352 347 335 328 316 312 319 325 323 323 322 321 318 317 317 317 317 317 316 316 315
357 360 362 364 362 361 360 360 359 360 360 360 360 360 358 355 354 350 352 356 358 356 351 348 341 329 313 313 319 325 325 324 324 321 319 317 317 317 317 316 316 316 315
360 361 361 362 364 361 359 360 361 361 361 361 361 360 359 357 355 355 352 356 356 355 351 347 344 331 313 310 313 321 323 326 325 323 319 317 316 317 316 316 316 316 316
356 359 362 362 362 361 359 361 360 362 361 361 361 361 359 358 354 354 354 356 355 352 353 348 344 335 315 310 310 317 324 325 325 324 319 318 317 317 316 315 315 316 316
353 356 357 361 361 360 360 360 361 360 359 357 360 361 360 355 353 351 355 356 354 355 353 350 344 336 317 310 310 324 326 325 325 325 320 320 317 317 316 315 315 315 315
349 352 355 358 357 359 359 359 360 359 357 357 357 351 351 351 348 351 351 353 354 356 351 349 345 338 320 310 311 325 325 324 325 326 321 321 319 318 316 315 316 315 315
346 347 348 348 351 353 354 357 357 356 357 356 354 352 349 350 350 347 349 347 345 349 352 347 346 338 332 314 311 319 325 326 327 326 325 321 321 319 318 317 316 316 315
343 346 345 345 347 349 350 350 352 349 348 347 346 347 349 351 351 345 348 347 349 348 348 348 346 343 332 326 312 311 319 327 327 326 326 323 322 321 319 318 317 316 317
340 341 344 345 345 344 343 344 344 344 344 343 341 340 339 338 339 347 348 348 346 344 344 344 345 344 339 327 315 313 319 327 327 326 326 325 323 323 321 319 318 318 317
336 339 342 342 346 344 345 346 348 347 343 344 341 341 342 341 342 342 343 346 348 346 345 345 344 338 336 327 320 322 322 325 327 328 326 325 324 323 323 320 319 319 319
334 337 340 341 342 343 344 345 346 345 344 343 342 340 342 338 337 345 346 347 346 344 343 344 343 340 340 327 325 324 324 323 325 327 327 325 325 324 323 323 321 319 320
332 335 337 339 340 340 342 344 344 343 344 343 341 340 342 340 341 344 341 338 337 342 342 340 340 341 340 335 328 328 325 324 323 322 328 326 325 325 324 324 323 323 322
332 333 335 335 337 338 339 341 340 341 342 341 341 340 337 339 340 340 340 339 339 339 338 339 339 340 340 335 329 328 326 325 323 322 326 327 326 325 324 325 324 324 322
331 331 332 334 335 333 334 334 337 338 339 339 339 339 340 340 340 340 339 338 338 338 338 339 338 338 338 336 329 327 326 326 323 321 322 327 327 326 326 326 325 325 323
329 329 331 332 333 333 333 332 333 334 335 335 335 336 337 338 338 338 338 337 338 338 339 339 338 337 337 339 336 327 326 324 323 322 321 325 326 326 325 326 326 325 323
327 327 328 330 331 331 330 329 329 331 332 333 333 333 334 334 334 334 335 335 336 337 337 337 336 337 335 336 336 326 324 324 323 322 320 323 325 323 325 326 326 325 324
324 324 325 326 326 329 330 327 328 329 329 330 330 331 331 331 332 332 332 333 333 333 334 334 334 334 334 334 334 330 324 323 323 323 321 320 323 321 324 326 325 325 324
321 323 324 325 325 327 323 323 326 325 325 326 327 328 327 328 329 329 330 330 330 330 331 331 332 332 333 332 332 332 325 323 323 323 322 320 322 321 321 323 325 325 324
Wind_Speed
26 21 23 21 18 17 17 16 16 21 18 16 15 14 15 9 7 11 13 11 11 13 14 14 10 8 6 6 7 8 11 13 7 6 4 5 7 7 5 5 6 10 13
27 22 23 22 19 19 18 17 17 18 18 20 18 13 11 10 8 11 13 12 9 12 12 12 10 8 7 7 6 9 3 0 1 5 6 7 10 5 2 5 7 11 9
27 23 19 23 22 20 17 17 16 17 19 21 21 15 10 10 9 9 11 11 13 9 10 11 10 7 7 8 10 8 4 6 6 5 6 7 10 8 4 4 6 7 9
29 26 22 19 22 20 18 18 16 15 14 14 15 14 12 10 9 9 11 11 12 9 8 10 7 6 6 7 9 10 6 11 8 7 7 7 10 8 5 7 9 7 10
32 30 25 16 17 20 20 21 19 18 17 16 15 14 15 14 13 10 11 13 14 10 8 6 6 4 5 6 8 13 10 6 4 6 5 7 9 7 4 6 9 8 12
37 30 25 20 17 19 20 21 21 20 19 17 16 14 13 15 14 9 13 17 18 13 8 4 4 1 3 6 10 16 15 13 12 9 8 8 6 6 7 6 6 4 9
14 31 24 19 18 19 18 19 21 20 18 18 16 15 13 12 13 14 16 14 15 12 7 4 1 3 3 5 10 15 16 19 19 16 12 11 11 8 6 8 7 4 11
13 9 14 15 15 17 17 20 22 22 20 19 17 16 13 11 13 16 15 14 15 11 7 6 3 2 1 3 8 12 14 13 16 19 18 12 10 9 7 8 8 7 11
11 11 8 14 16 19 21 23 23 23 22 21 19 18 16 13 14 17 19 17 15 12 8 8 6 4 4 1 5 8 11 10 13 16 18 15 13 11 11 9 10 9 12
15 14 9 12 15 21 23 24 22 21 21 20 21 21 18 15 13 17 20 20 18 14 10 10 9 5 7 7 4 6 7 9 10 15 16 15 14 11 10 9 10 8 10
8 10 13 12 15 15 16 16 17 17 18 20 21 20 18 17 15 15 19 19 18 15 11 11 10 8 8 7 6 5 5 6 7 9 13 13 12 9 8 8 9 9 7
6 10 11 11 13 12 12 14 17 17 18 18 19 19 17 18 16 17 18 20 19 16 10 9 11 9 10 8 7 9 8 6 5 5 10 11 10 10 9 10 9 10 10
2 1 11 11 8 9 15 13 17 17 16 16 19 17 17 18 17 15 17 19 19 16 15 9 8 10 11 10 10 13 11 9 6 4 7 12 11 12 11 11 13 11 11
5 5 2 3 9 11 9 10 10 12 13 15 15 14 13 18 16 17 18 20 20 22 19 14 12 11 9 11 13 15 12 7 7 9 6 9 11 12 14 12 13 16 15
4 5 4 2 4 7 6 7 9 11 14 14 13 16 18 18 17 15 15 17 20 21 21 20 19 19 16 15 16 18 15 9 10 15 5 5 9 10 10 10 10 12 16
2 1 2 0 3 3 8 9 10 8 10 11 12 13 13 16 19 21 19 17 17 17 21 25 25 23 21 17 17 18 17 16 12 9 6 3 6 8 7 10 7 7 12
3 5 4 4 4 5 5 3 4 6 7 10 11 15 18 20 25 24 22 21 22 21 23 25 26 26 22 18 17 20 20 21 15 13 11 6 6 8 6 8 11 9 10
3 2 4 6 6 4 3 3 2 5 5 6 10 9 8 10 13 17 22 21 27 27 27 27 27 26 21 17 17 18 17 20 19 18 14 11 8 8 6 7 10 13 12
2 2 1 3 7 9 9 9 6 6 8 11 10 5 5 7 10 10 8 16 21 24 24 22 22 21 17 20 19 17 17 19 20 19 17 16 15 12 9 7 9 11 12
1 4 3 2 3 5 5 6 8 10 9 7 5 4 6 5 2 5 6 4 7 13 16 16 17 19 21 24 22 21 24 21 20 19 20 19 18 16 12 12 10 8 8
3 2 6 6 5 5 3 3 4 4 4 2 1 0 3 7 4 3 3 4 6 8 11 16 18 24 22 25 24 20 21 24 20 17 23 19 20 18 18 18 12 10 10
5 3 3 6 6 4 3 3 5 5 6 6 5 4 4 5 6 8 7 7 9 7 5 3 7 11 19 26 29 25 17 24 21 19 21 21 18 18 22 20 19 15 14
5 3 1 3 5 5 5 5 5 5 4 6 7 8 8 7 6 6 7 8 6 7 10 7 6 5 9 16 25 28 21 26 21 19 18 22 19 15 25 17 20 18 17
6 3 2 2 1 2 1 1 3 4 3 3 3 3 3 3 4 3 4 5 7 9 10 11 11 11 11 15 17 31 20 24 26 20 20 23 22 15 21 18 18 17 17
11 9 8 6 5 2 1 4 4 4 4 3 3 3 3 4 5 5 6 4 4 4 6 7 6 8 13 16 16 32 26 24 28 26 24 24 21 18 17 20 21 20 20
13 11 9 9 7 5 4 5 5 7 8 9 9 8 8 8 8 8 8 6 4 3 1 0 1 3 5 8 12 28 32 30 26 28 29 21 17 23 21 19 18 20 21
Wind_Direction
221 226 227 223 219 218 219 220 211 212 221 232 248 259 266 267 263 301 324 338 348 350 360 1 10 11 31 19 7 22 71 67 29 72 62 39 27 12 350 31 24 3 13
223 227 234 228 225 223 225 227 229 226 223 230 247 261 262 256 260 288 304 324 331 344 353 357 7 18 20 38 32 38 77 29 15 87 75 43 47 43 45 13 8 357 17
222 229 234 230 227 227 227 228 231 234 233 235 245 255 260 262 265 278 286 304 324 338 342 351 7 25 19 26 25 30 13 60 100 78 57 66 66 56 67 37 19 20 36
223 226 233 237 234 232 235 234 234 239 241 241 247 253 254 260 267 270 279 292 308 328 334 346 7 19 19 26 30 42 82 102 88 68 68 108 87 85 55 38 35 41 57
227 224 227 238 242 238 238 242 242 244 248 251 251 251 251 256 264 269 270 285 294 307 327 338 354 7 14 22 38 48 71 141 52 17 51 111 118 111 64 44 45 55 76
224 224 221 225 234 239 240 243 250 252 250 249 250 255 252 248 254 238 269 279 281 296 313 312 332 67 33 33 59 57 69 66 56 63 72 83 117 105 102 70 41 54 79
198 217 222 224 230 241 252 253 253 254 254 252 250 252 258 257 249 232 254 262 271 290 294 282 266 123 40 36 61 54 57 52 55 56 65 70 103 106 90 79 49 64 104
175 169 205 218 227 238 247 251 257 257 254 253 253 253 257 258 244 240 248 251 267 279 272 262 219 197 334 18 59 57 51 55 52 48 53 64 90 95 94 88 71 109 111
212 197 226 232 230 239 250 253 254 252 251 248 251 253 255 254 244 236 244 248 257 266 258 250 235 202 195 180 76 77 67 61 53 49 43 55 95 106 89 79 82 135 128
237 226 221 245 253 252 254 254 250 249 249 245 244 243 246 246 244 234 244 249 253 258 249 230 236 203 179 176 159 114 94 73 57 52 42 56 85 94 87 87 82 92 140
243 225 230 233 240 260 257 242 247 247 243 239 239 244 244 240 240 233 241 246 250 255 248 236 225 209 203 186 167 138 147 85 83 53 44 82 79 78 87 99 109 108 111
267 243 225 237 235 239 246 252 257 246 239 239 235 240 243 243 244 246 245 245 250 256 254 241 224 217 206 192 163 153 161 147 110 70 62 77 77 93 98 105 126 118 102
85 188 241 235 218 238 253 256 247 244 243 236 232 243 247 246 246 243 244 246 248 248 251 243 220 208 199 184 165 159 156 158 175 146 80 73 74 84 92 111 121 133 132
230 243 187 239 243 243 261 258 238 234 235 237 242 250 247 251 246 235 237 236 238 235 232 229 221 206 191 183 170 164 156 160 191 182 115 84 80 87 89 101 113 125 128
246 252 248 232 280 268 279 273 252 246 245 250 243 235 239 241 245 250 245 237 243 241 230 221 219 203 199 192 183 175 168 176 168 173 130 111 91 94 98 95 99 113 117
278 221 66 93 239 263 295 290 277 282 280 280 279 266 258 252 244 246 238 237 234 238 231 225 224 217 207 196 189 186 181 174 170 182 179 129 113 98 112 110 104 108 119
337 281 241 187 147 125 131 62 339 316 300 295 287 284 273 257 248 245 247 240 240 231 233 231 224 219 209 197 189 190 181 174 183 202 201 178 159 133 103 129 125 119 123
347 335 254 254 232 211 190 161 72 290 308 311 317 306 296 284 267 250 245 240 230 230 236 230 226 217 206 196 186 174 173 175 184 199 207 203 194 187 157 122 128 135 129
304 319 334 258 261 263 271 259 252 284 285 292 319 297 282 318 308 278 241 224 232 236 230 230 231 226 214 189 183 179 196 190 194 194 205 213 209 210 199 168 132 128 131
266 254 254 283 266 266 264 263 254 248 262 278 308 262 248 264 117 146 156 190 232 237 238 229 233 219 215 197 185 205 208 209 209 206 200 211 213 220 218 206 195 171 165
9 242 259 264 270 253 265 243 248 239 204 246 7 79 169 180 193 232 258 250 251 232 231 246 249 237 213 197 188 196 209 215 213 212 201 207 210 208 220 227 225 213 191
352 353 284 275 286 285 278 247 242 228 219 203 187 178 181 192 187 189 194 206 186 181 188 204 207 221 228 202 201 195 207 205 213 213 211 209 209 212 205 227 227 215 199
337 325 315 287 289 298 292 281 252 247 235 228 201 188 180 178 180 161 167 169 178 184 187 184 187 207 221 224 217 196 204 200 220 214 226 209 213 203 200 218 224 215 214
15 23 41 40 3 332 330 221 244 231 220 204 187 179 165 163 148 145 159 189 211 208 210 215 231 225 210 213 215 200 206 203 202 207 206 207 212 215 205 208 220 218 230
28 30 42 56 66 67 50 160 143 154 151 141 129 124 124 124 127 136 130 137 168 201 217 226 222 228 229 229 223 202 209 203 206 204 203 205 211 218 212 209 218 219 224
33 31 37 39 46 55 85 115 125 133 130 121 116 111 109 110 103 95 92 85 98 122 120 18 269 249 249 231 227 209 212 208 213 207 198 202 208 215 215 217 218 219 226